Year,Month,Day,Hour,Minute,Value (Times are PST for temperature in C)
2014,10,22,00,06,8.90
2014,10,22,00,07,8.90
2014,10,22,00,08,8.90
2014,10,22,00,09,8.90
2014,10,22,00,10,8.90
2014,10,22,00,11,8.90
2014,10,22,00,12,8.90
2014,10,22,00,13,9.00
2014,10,22,00,14,9.00
2014,10,22,00,15,9.00
2014,10,22,00,16,9.00
2014,10,22,00,17,9.00
2014,10,22,00,18,9.00
2014,10,22,00,19,9.00
2014,10,22,00,20,9.00
2014,10,22,00,21,9.00
2014,10,22,00,22,9.00
2014,10,22,00,23,9.00
2014,10,22,00,24,9.00
2014,10,22,00,25,9.10
2014,10,22,00,26,9.10
2014,10,22,00,27,9.20
2014,10,22,00,28,9.30
2014,10,22,00,29,9.30
2014,10,22,00,30,9.40
2014,10,22,00,31,9.40
2014,10,22,00,32,9.40
2014,10,22,00,33,9.50
2014,10,22,00,34,9.50
2014,10,22,00,35,9.50
2014,10,22,00,36,9.50
2014,10,22,00,37,9.50
2014,10,22,00,38,9.50
2014,10,22,00,39,9.40
2014,10,22,00,40,9.40
2014,10,22,00,41,9.40
2014,10,22,00,42,9.40
2014,10,22,00,43,9.30
2014,10,22,00,44,9.30
2014,10,22,00,45,9.20
2014,10,22,00,46,9.10
2014,10,22,00,47,9.10
2014,10,22,00,48,9.00
2014,10,22,00,49,9.00
2014,10,22,00,50,8.90
2014,10,22,00,51,8.90
2014,10,22,00,52,8.90
2014,10,22,00,53,8.90
2014,10,22,00,54,8.90
2014,10,22,00,55,8.90
2014,10,22,00,56,8.90
2014,10,22,00,57,8.90
2014,10,22,00,58,8.90
2014,10,22,00,59,8.90
2014,10,22,01,00,9.00
2014,10,22,01,01,9.00
2014,10,22,01,02,9.10
2014,10,22,01,03,9.10
2014,10,22,01,04,9.10
2014,10,22,01,05,9.10
2014,10,22,01,06,9.20
2014,10,22,01,07,9.30
2014,10,22,01,08,9.30
2014,10,22,01,09,9.40
2014,10,22,01,10,9.50
2014,10,22,01,11,9.50
2014,10,22,01,12,9.60
2014,10,22,01,13,9.70
2014,10,22,01,14,9.70
2014,10,22,01,15,9.80
2014,10,22,01,16,9.80
2014,10,22,01,17,9.90
2014,10,22,01,18,9.90
2014,10,22,01,19,10.00
2014,10,22,01,20,10.00
2014,10,22,01,21,10.10
2014,10,22,01,22,10.10
2014,10,22,01,23,10.10
2014,10,22,01,24,10.20
2014,10,22,01,25,10.30
2014,10,22,01,26,10.30
2014,10,22,01,27,10.40
2014,10,22,01,28,10.40
2014,10,22,01,29,10.50
2014,10,22,01,30,10.60
2014,10,22,01,31,10.70
2014,10,22,01,32,10.70
2014,10,22,01,33,10.80
2014,10,22,01,34,10.80
2014,10,22,01,35,10.80
2014,10,22,01,36,10.80
2014,10,22,01,37,10.80
2014,10,22,01,38,10.90
2014,10,22,01,39,10.90
2014,10,22,01,40,10.90
2014,10,22,01,41,10.90
2014,10,22,01,42,11.00
2014,10,22,01,43,11.00
2014,10,22,01,44,11.00
2014,10,22,01,45,11.10
2014,10,22,01,46,11.10
2014,10,22,01,47,11.10
2014,10,22,01,48,11.20
2014,10,22,01,49,11.30
2014,10,22,01,50,11.30
2014,10,22,01,51,11.40
2014,10,22,01,52,11.40
2014,10,22,01,53,11.50
2014,10,22,01,54,11.50
2014,10,22,01,55,11.60
2014,10,22,01,56,11.70
2014,10,22,01,57,11.70
2014,10,22,01,58,11.70
2014,10,22,01,59,11.80
2014,10,22,02,00,11.80
2014,10,22,02,01,11.80
2014,10,22,02,02,11.80
2014,10,22,02,03,11.80
2014,10,22,02,04,11.80
2014,10,22,02,05,11.80
2014,10,22,02,06,11.80
2014,10,22,02,07,11.80
2014,10,22,02,08,11.70
2014,10,22,02,09,11.70
2014,10,22,02,10,11.70
2014,10,22,02,11,11.80
2014,10,22,02,12,11.80
2014,10,22,02,13,11.80
2014,10,22,02,14,11.80
2014,10,22,02,15,11.80
2014,10,22,02,16,11.80
2014,10,22,02,17,11.80
2014,10,22,02,18,11.80
2014,10,22,02,19,11.80
2014,10,22,02,20,11.80
2014,10,22,02,21,11.80
2014,10,22,02,22,11.80
2014,10,22,02,23,11.80
2014,10,22,02,24,11.80
2014,10,22,02,25,11.90
2014,10,22,02,26,11.90
2014,10,22,02,27,11.90
2014,10,22,02,28,12.00
2014,10,22,02,29,12.00
2014,10,22,02,30,12.00
2014,10,22,02,31,12.10
2014,10,22,02,32,12.10
2014,10,22,02,33,12.10
2014,10,22,02,34,12.10
2014,10,22,02,35,12.10
2014,10,22,02,36,12.10
2014,10,22,02,37,12.10
2014,10,22,02,38,12.10
2014,10,22,02,39,12.10
2014,10,22,02,40,12.10
2014,10,22,02,41,12.10
2014,10,22,02,42,12.10
2014,10,22,02,43,12.10
2014,10,22,02,44,12.10
2014,10,22,02,45,12.10
2014,10,22,02,46,12.10
2014,10,22,02,47,12.10
2014,10,22,02,48,12.20
2014,10,22,02,49,12.20
2014,10,22,02,50,12.20
2014,10,22,02,51,12.20
2014,10,22,02,52,12.20
2014,10,22,02,53,12.20
2014,10,22,02,54,12.20
2014,10,22,02,55,12.20
2014,10,22,02,56,12.20
2014,10,22,02,57,12.20
2014,10,22,02,58,12.20
2014,10,22,02,59,12.20
2014,10,22,03,00,12.20
2014,10,22,03,01,12.20
2014,10,22,03,02,12.20
2014,10,22,03,03,12.20
2014,10,22,11,04,12.20
2014,10,22,11,05,12.20
2014,10,22,11,06,12.20
2014,10,22,11,07,12.20
2014,10,22,11,08,12.20
2014,10,22,11,09,12.20
2014,10,22,11,10,12.20
2014,10,22,11,11,12.20
2014,10,22,11,12,12.20
2014,10,22,11,13,12.30
2014,10,22,11,14,12.30
2014,10,22,11,15,12.30
2014,10,22,11,16,12.30
2014,10,22,11,17,12.30
2014,10,22,11,18,12.40
2014,10,22,11,19,12.40
2014,10,22,11,20,12.40
2014,10,22,11,21,12.40
2014,10,22,11,22,12.50
2014,10,22,11,23,12.50
2014,10,22,11,24,12.50
2014,10,22,11,25,12.50
2014,10,22,11,26,12.50
2014,10,22,11,27,12.50
2014,10,22,11,28,12.50
2014,10,22,11,29,12.50
2014,10,22,11,30,12.50
2014,10,22,11,31,12.50
2014,10,22,11,32,12.50
2014,10,22,11,33,12.40
2014,10,22,11,34,12.40
2014,10,22,11,35,12.40
2014,10,22,11,36,12.40
2014,10,22,11,37,12.40
2014,10,22,11,38,12.40
2014,10,22,11,39,12.40
2014,10,22,11,40,12.40
2014,10,22,11,41,12.40
2014,10,22,11,42,12.40
2014,10,22,11,43,12.40
2014,10,22,11,44,12.50
2014,10,22,11,45,12.50
2014,10,22,11,46,12.60
2014,10,22,11,47,12.60
2014,10,22,11,48,12.60
2014,10,22,11,49,12.60
2014,10,22,11,50,12.60
2014,10,22,11,51,12.60
2014,10,22,11,52,12.60
2014,10,22,11,53,12.60
2014,10,22,11,54,12.50
2014,10,22,11,55,12.60
2014,10,22,11,56,12.50
2014,10,22,11,57,12.50
2014,10,22,11,58,12.50
2014,10,22,11,59,12.50
2014,10,22,12,00,12.50
2014,10,22,12,01,12.50
2014,10,22,12,02,12.50
2014,10,22,12,03,12.50
2014,10,22,12,04,12.50
2014,10,22,12,05,12.50
2014,10,22,12,06,12.50
2014,10,22,12,07,12.50
2014,10,22,12,08,12.50
2014,10,22,12,09,12.50
2014,10,22,12,10,12.40
2014,10,22,12,11,12.50
2014,10,22,12,12,12.40
2014,10,22,12,13,12.40
2014,10,22,12,14,12.40
2014,10,22,12,15,12.40
2014,10,22,12,16,12.40
2014,10,22,12,17,12.40
2014,10,22,12,18,12.40
2014,10,22,12,19,12.40
2014,10,22,12,20,12.40
2014,10,22,12,21,12.40
2014,10,22,12,22,12.40
2014,10,22,12,23,12.40
2014,10,22,12,24,12.40
2014,10,22,12,25,12.30
2014,10,22,12,26,12.30
2014,10,22,12,27,12.30
2014,10,22,12,28,12.30
2014,10,22,12,29,12.30
2014,10,22,12,30,12.30
2014,10,22,12,31,12.30
2014,10,22,12,32,12.30
2014,10,22,12,33,12.30
2014,10,22,12,34,12.30
2014,10,22,12,35,12.30
2014,10,22,12,36,12.30
2014,10,22,12,37,12.30
2014,10,22,12,38,12.30
2014,10,22,12,39,12.30
2014,10,22,12,40,12.30
2014,10,22,12,41,12.30
2014,10,22,12,42,12.20
2014,10,22,12,43,12.20
2014,10,22,12,44,12.20
2014,10,22,12,45,12.20
2014,10,22,12,46,12.20
2014,10,22,12,47,12.20
2014,10,22,12,48,12.20
2014,10,22,12,49,12.20
2014,10,22,12,50,12.20
2014,10,22,12,51,12.20
2014,10,22,12,52,12.20
2014,10,22,12,53,12.20
2014,10,22,12,54,12.10
2014,10,22,12,55,12.10
2014,10,22,12,56,12.10
2014,10,22,12,57,12.10
2014,10,22,12,58,12.10
2014,10,22,12,59,12.10
2014,10,22,13,00,12.10
2014,10,22,13,01,12.10
2014,10,22,13,02,12.10
2014,10,22,13,03,12.10
2014,10,22,13,04,12.10
2014,10,22,13,05,12.10
2014,10,22,13,06,12.10
2014,10,22,13,07,12.20
2014,10,22,13,08,12.20
2014,10,22,13,09,12.20
2014,10,22,13,10,12.20
2014,10,22,13,11,12.20
2014,10,22,13,12,12.20
2014,10,22,13,13,12.30
2014,10,22,13,14,12.30
2014,10,22,13,15,12.30
2014,10,22,13,16,12.30
2014,10,22,13,17,12.30
2014,10,22,13,18,12.30
2014,10,22,13,19,12.30
2014,10,22,13,20,12.30
2014,10,22,13,21,12.30
2014,10,22,13,22,12.30
2014,10,22,13,23,12.30
2014,10,22,13,24,12.30
2014,10,22,13,25,12.30
2014,10,22,13,26,12.30
2014,10,22,13,27,12.30
2014,10,22,13,28,12.30
2014,10,22,13,29,12.30
2014,10,22,13,30,12.30
2014,10,22,13,31,12.30
2014,10,22,13,32,12.30
2014,10,22,13,33,12.30
2014,10,22,13,34,12.30
2014,10,22,13,35,12.40
2014,10,22,13,36,12.40
2014,10,22,13,37,12.40
2014,10,22,13,38,12.40
2014,10,22,13,39,12.40
2014,10,22,13,40,12.40
2014,10,22,13,41,12.50
2014,10,22,13,42,12.50
2014,10,22,13,43,12.50
2014,10,22,13,44,12.50
2014,10,22,13,45,12.50
2014,10,22,13,46,12.50
2014,10,22,13,47,12.50
2014,10,22,13,48,12.40
2014,10,22,13,49,12.40
2014,10,22,13,50,12.50
2014,10,22,13,51,12.50
2014,10,22,13,52,12.50
2014,10,22,13,53,12.50
2014,10,22,13,54,12.60
2014,10,22,13,55,12.60
2014,10,22,13,56,12.60
2014,10,22,13,57,12.60
2014,10,22,13,58,12.60
2014,10,22,13,59,12.50
2014,10,22,14,00,12.50
2014,10,22,14,01,12.50
2014,10,22,14,02,12.40
2014,10,22,14,03,12.40
2014,10,22,14,04,12.40
2014,10,22,14,05,12.40
2014,10,22,14,06,12.30
2014,10,22,14,07,12.30
2014,10,22,14,08,12.30
2014,10,22,14,09,12.30
2014,10,22,14,10,12.30
2014,10,22,14,11,12.30
2014,10,22,14,12,12.30
2014,10,22,14,13,12.40
2014,10,22,14,14,12.40
2014,10,22,14,15,12.40
2014,10,22,14,16,12.40
2014,10,22,14,17,12.40
2014,10,22,14,18,12.40
2014,10,22,14,19,12.50
2014,10,22,14,20,12.50
2014,10,22,14,21,12.60
2014,10,22,14,22,12.60
2014,10,22,14,23,12.60
2014,10,22,14,24,12.60
2014,10,22,14,25,12.60
2014,10,22,14,26,12.60
2014,10,22,14,27,12.70
2014,10,22,14,28,12.60
2014,10,22,14,29,12.60
2014,10,22,14,30,12.60
2014,10,22,14,31,12.70
2014,10,22,14,32,12.70
2014,10,22,14,33,12.70
2014,10,22,14,34,12.70
2014,10,22,14,35,12.70
2014,10,22,14,36,12.70
2014,10,22,14,37,12.70
2014,10,22,14,38,12.70
2014,10,22,14,39,12.70
2014,10,22,14,40,12.70
2014,10,22,14,41,12.70
2014,10,22,14,42,12.70
2014,10,22,14,43,12.70
2014,10,22,14,44,12.70
2014,10,22,14,45,12.70
2014,10,22,14,46,12.70
2014,10,22,14,47,12.70
2014,10,22,14,48,12.70
2014,10,22,14,49,12.70
2014,10,22,14,50,12.80
2014,10,22,14,51,12.80
2014,10,22,14,52,12.80
2014,10,22,14,53,12.80
2014,10,22,14,54,12.80
2014,10,22,14,55,12.80
2014,10,22,14,56,12.80
2014,10,22,14,57,12.80
2014,10,22,14,58,12.80
2014,10,22,14,59,12.80
2014,10,22,15,00,12.80
2014,10,22,15,01,12.80
2014,10,22,15,02,12.80
2014,10,22,15,03,12.80
2014,10,22,15,04,12.80
2014,10,22,15,05,12.80
2014,10,22,15,06,12.80
2014,10,22,15,07,12.80
2014,10,22,15,08,12.80
2014,10,22,15,09,12.80
2014,10,22,15,10,12.80
2014,10,22,15,11,12.80
2014,10,22,15,12,12.80
2014,10,22,15,13,12.80
2014,10,22,15,14,12.80
2014,10,22,15,15,12.80
2014,10,22,15,16,12.80
2014,10,22,15,17,12.80
2014,10,22,15,18,12.80
2014,10,22,15,19,12.80
2014,10,22,15,20,12.80
2014,10,22,15,21,12.80
2014,10,22,15,22,12.80
2014,10,22,15,23,12.80
2014,10,22,15,24,12.80
2014,10,22,15,25,12.80
2014,10,22,15,26,12.80
2014,10,22,15,27,12.80
2014,10,22,15,28,12.80
2014,10,22,15,29,12.80
2014,10,22,15,30,12.80
2014,10,22,15,31,12.80
2014,10,22,15,32,12.80
2014,10,22,15,33,12.70
2014,10,22,15,34,12.70
2014,10,22,15,35,12.70
2014,10,22,15,36,12.70
2014,10,22,15,37,12.70
2014,10,22,15,38,12.60
2014,10,22,15,39,12.60
2014,10,22,15,40,12.60
2014,10,22,15,41,12.60
2014,10,22,15,42,12.60
2014,10,22,15,43,12.50
2014,10,22,15,44,12.50
2014,10,22,15,45,12.50
2014,10,22,15,46,12.50
2014,10,22,15,47,12.50
2014,10,22,15,48,12.50
2014,10,22,15,49,12.50
2014,10,22,15,50,12.40
2014,10,22,15,51,12.50
2014,10,22,15,52,12.50
2014,10,22,15,53,12.40
2014,10,22,15,54,12.40
2014,10,22,15,55,12.40
2014,10,22,15,56,12.40
2014,10,22,15,57,12.40
2014,10,22,15,58,12.40
2014,10,22,15,59,12.40
2014,10,22,16,00,12.40
2014,10,22,16,01,12.40
2014,10,22,16,02,12.40
2014,10,22,16,03,12.30
2014,10,22,16,04,12.30
2014,10,22,16,05,12.30
2014,10,22,16,06,12.30
2014,10,22,16,07,12.30
2014,10,22,16,08,12.30
2014,10,22,16,09,12.30
2014,10,22,16,10,12.30
2014,10,22,16,11,12.20
2014,10,22,16,12,12.20
2014,10,22,16,13,12.20
2014,10,22,16,14,12.20
2014,10,22,16,15,12.20
2014,10,22,16,16,12.20
2014,10,22,16,17,12.20
2014,10,22,16,18,12.20
2014,10,22,16,19,12.10
2014,10,22,16,20,12.10
2014,10,22,16,21,12.10
2014,10,22,16,22,12.10
2014,10,22,16,23,12.10
2014,10,22,16,24,12.10
2014,10,22,16,25,12.10
2014,10,22,16,26,12.10
2014,10,22,16,27,12.00
2014,10,22,16,28,12.00
2014,10,22,16,29,12.00
2014,10,22,16,30,12.00
2014,10,22,16,31,12.00
2014,10,22,16,32,12.00
2014,10,22,16,33,11.90
2014,10,22,16,34,11.90
2014,10,22,16,35,11.90
2014,10,22,16,36,11.90
2014,10,22,16,37,11.90
2014,10,22,16,38,11.80
2014,10,22,16,39,11.80
2014,10,22,16,40,11.80
2014,10,22,16,41,11.80
2014,10,22,16,42,11.80
2014,10,22,16,43,11.70
2014,10,22,16,44,11.70
2014,10,22,16,45,11.70
2014,10,22,16,46,11.70
2014,10,22,16,47,11.70
2014,10,22,16,48,11.60
2014,10,22,16,49,11.60
2014,10,22,16,50,11.60
2014,10,22,16,51,11.60
2014,10,22,16,52,11.60
2014,10,22,16,53,11.60
2014,10,22,16,54,11.50
2014,10,22,16,55,11.50
2014,10,22,16,56,11.50
2014,10,22,16,57,11.50
2014,10,22,16,58,11.40
2014,10,22,16,59,11.40
2014,10,22,17,00,11.40
2014,10,22,17,01,11.40
2014,10,22,17,02,11.40
2014,10,22,17,03,11.40
2014,10,22,17,04,11.40
2014,10,22,17,05,11.30
2014,10,22,17,06,11.30
2014,10,22,17,07,11.30
2014,10,22,17,08,11.30
2014,10,22,17,09,11.30
2014,10,22,17,10,11.30
2014,10,22,17,11,11.30
2014,10,22,17,12,11.30
2014,10,22,17,13,11.20
2014,10,22,17,14,11.20
2014,10,22,17,15,11.20
2014,10,22,17,16,11.20
2014,10,22,17,17,11.20
2014,10,22,17,18,11.20
2014,10,22,17,19,11.20
2014,10,22,17,20,11.20
2014,10,22,17,21,11.10
2014,10,22,17,22,11.10
2014,10,22,17,23,11.10
2014,10,22,17,24,11.10
2014,10,22,17,25,11.10
2014,10,22,17,26,11.10
2014,10,22,17,27,11.10
2014,10,22,17,28,11.10
2014,10,22,17,29,11.10
2014,10,22,17,30,11.00
2014,10,22,17,31,11.00
2014,10,22,17,32,11.00
2014,10,22,17,33,11.00
2014,10,22,17,34,11.00
2014,10,22,17,35,11.00
2014,10,22,17,36,11.00
2014,10,22,17,37,11.00
2014,10,22,17,38,11.00
2014,10,22,17,39,11.00
2014,10,22,17,40,10.90
2014,10,22,17,41,10.90
2014,10,22,17,42,10.90
2014,10,22,17,43,10.90
2014,10,22,17,44,10.90
2014,10,22,17,45,10.90
2014,10,22,17,46,10.90
2014,10,22,17,47,10.90
2014,10,22,17,48,10.90
2014,10,22,17,49,10.90
2014,10,22,17,50,10.90
2014,10,22,17,51,10.90
2014,10,22,17,52,10.90
2014,10,22,17,53,10.90
2014,10,22,17,54,10.80
2014,10,22,17,55,10.80
2014,10,22,17,56,10.80
2014,10,22,17,57,10.80
2014,10,22,17,58,10.80
2014,10,22,17,59,10.80
2014,10,22,18,00,10.80
2014,10,22,18,01,10.80
2014,10,22,18,02,10.80
2014,10,22,18,03,10.80
2014,10,22,18,04,10.80
2014,10,22,18,05,10.80
2014,10,22,18,06,10.80
2014,10,22,18,07,10.80
2014,10,22,18,08,10.70
2014,10,22,18,09,10.70
2014,10,22,18,10,10.70
2014,10,22,18,11,10.70
2014,10,22,18,12,10.70
2014,10,22,18,13,10.70
2014,10,22,18,14,10.70
2014,10,22,18,15,10.70
2014,10,22,18,16,10.70
2014,10,22,18,17,10.70
2014,10,22,18,18,10.70
2014,10,22,18,19,10.70
2014,10,22,18,20,10.70
2014,10,22,18,21,10.70
2014,10,22,18,22,10.70
2014,10,22,18,23,10.70
2014,10,22,18,24,10.70
2014,10,22,18,25,10.70
2014,10,22,18,26,10.70
2014,10,22,18,27,10.70
2014,10,22,18,28,10.70
2014,10,22,18,29,10.70
2014,10,22,18,30,10.60
2014,10,22,18,31,10.60
2014,10,22,18,32,10.60
2014,10,22,18,33,10.60
2014,10,22,18,34,10.60
2014,10,22,18,35,10.60
2014,10,22,18,36,10.60
2014,10,22,18,37,10.60
2014,10,22,18,38,10.50
2014,10,22,18,39,10.50
2014,10,22,18,40,10.50
2014,10,22,18,41,10.50
2014,10,22,18,42,10.40
2014,10,22,18,43,10.40
2014,10,22,18,44,10.40
2014,10,22,18,45,10.40
2014,10,22,18,46,10.40
2014,10,22,18,47,10.30
2014,10,22,18,48,10.30
2014,10,22,18,49,10.30
2014,10,22,18,50,10.30
2014,10,22,18,51,10.30
2014,10,22,18,52,10.30
2014,10,22,18,53,10.30
2014,10,22,18,54,10.20
2014,10,22,18,55,10.20
2014,10,22,18,56,10.20
2014,10,22,18,57,10.20
2014,10,22,18,58,10.20
2014,10,22,18,59,10.20
2014,10,22,19,00,10.20
2014,10,22,19,01,10.20
2014,10,22,19,02,10.20
2014,10,22,19,03,10.10
2014,10,22,19,04,10.10
2014,10,22,19,05,10.10
2014,10,22,19,06,10.10
2014,10,22,19,07,10.10
2014,10,22,19,08,10.10
2014,10,22,19,09,10.10
2014,10,22,19,10,10.00
2014,10,22,19,11,10.00
2014,10,22,19,12,10.00
2014,10,22,19,13,10.00
2014,10,22,19,14,10.00
2014,10,22,19,15,10.00
2014,10,22,19,16,10.00
2014,10,22,19,17,10.00
2014,10,22,19,18,9.90
2014,10,22,19,19,9.90
2014,10,22,19,20,9.90
2014,10,22,19,21,9.90
2014,10,22,19,22,9.90
2014,10,22,19,23,9.90
2014,10,22,19,24,9.90
2014,10,22,19,25,9.90
2014,10,22,19,26,9.90
2014,10,22,19,27,9.90
2014,10,22,19,28,9.90
2014,10,22,19,29,9.90
2014,10,22,19,30,9.90
2014,10,22,19,31,9.90
2014,10,22,19,32,9.90
2014,10,22,19,33,9.80
2014,10,22,19,34,9.80
2014,10,22,19,35,9.80
2014,10,22,19,36,9.80
2014,10,22,19,37,9.80
2014,10,22,19,38,9.70
2014,10,22,19,39,9.70
2014,10,22,19,40,9.70
2014,10,22,19,41,9.70
2014,10,22,19,42,9.70
2014,10,22,19,43,9.70
2014,10,22,19,44,9.70
2014,10,22,19,45,9.70
2014,10,22,19,46,9.70
2014,10,22,19,47,9.60
2014,10,22,19,48,9.60
2014,10,22,19,49,9.60
2014,10,22,19,50,9.60
2014,10,22,19,51,9.60
2014,10,22,19,52,9.60
2014,10,22,19,53,9.60
2014,10,22,19,54,9.60
2014,10,22,19,55,9.50
2014,10,22,19,56,9.50
2014,10,22,19,57,9.50
2014,10,22,19,58,9.50
2014,10,22,19,59,9.50
2014,10,22,20,00,9.40
2014,10,22,20,01,9.40
2014,10,22,20,02,9.40
2014,10,22,20,03,9.40
2014,10,22,20,04,9.40
2014,10,22,20,05,9.40
2014,10,22,20,06,9.40
2014,10,22,20,07,9.40
2014,10,22,20,08,9.40
2014,10,22,20,09,9.40
2014,10,22,20,10,9.30
2014,10,22,20,11,9.30
2014,10,22,20,12,9.30
2014,10,22,20,13,9.30
2014,10,22,20,14,9.30
2014,10,22,20,15,9.30
2014,10,22,20,16,9.30
2014,10,22,20,17,9.30
2014,10,22,20,18,9.20
2014,10,22,20,19,9.20
2014,10,22,20,20,9.20
2014,10,22,20,21,9.20
2014,10,22,20,22,9.20
2014,10,22,20,23,9.20
2014,10,22,20,24,9.20
2014,10,22,20,25,9.20
2014,10,22,20,26,9.10
2014,10,22,20,27,9.10
2014,10,22,20,28,9.10
2014,10,22,20,29,9.10
2014,10,22,20,30,9.10
2014,10,22,20,31,9.10
2014,10,22,20,32,9.10
2014,10,22,20,33,9.10
2014,10,22,20,34,9.10
2014,10,22,20,35,9.10
2014,10,22,20,36,9.10
2014,10,22,20,37,9.10
2014,10,22,20,38,9.10
2014,10,22,20,39,9.10
2014,10,22,20,40,9.10
2014,10,22,20,41,9.10
2014,10,22,20,42,9.10
2014,10,22,20,43,9.10
2014,10,22,20,44,9.10
2014,10,22,20,45,9.10
2014,10,22,20,46,9.10
2014,10,22,20,47,9.10
2014,10,22,20,48,9.10
2014,10,22,20,49,9.10
2014,10,22,20,50,9.10
2014,10,22,20,51,9.10
2014,10,22,20,52,9.10
2014,10,22,20,53,9.10
2014,10,22,20,54,9.10
2014,10,22,20,55,9.10
2014,10,22,20,56,9.10
2014,10,22,20,57,9.10
2014,10,22,20,58,9.10
2014,10,22,20,59,9.10
2014,10,22,21,00,9.10
2014,10,22,21,01,9.10
2014,10,22,21,02,9.10
2014,10,22,21,03,9.10
2014,10,22,21,04,9.10
2014,10,22,21,05,9.10
2014,10,22,21,06,9.10
2014,10,22,21,07,9.10
2014,10,22,21,08,9.10
2014,10,22,21,09,9.10
2014,10,22,21,10,9.10
2014,10,22,21,11,9.10
2014,10,22,21,12,9.10
2014,10,22,21,13,9.10
2014,10,22,21,14,9.10
2014,10,22,21,15,9.10
2014,10,22,21,16,9.10
2014,10,22,21,17,9.10
2014,10,22,21,18,9.10
2014,10,22,21,19,9.10
2014,10,22,21,20,9.10
2014,10,22,21,21,9.10
2014,10,22,21,22,9.10
2014,10,22,21,23,9.10
2014,10,22,21,24,9.10
2014,10,22,21,25,9.10
2014,10,22,21,26,9.20
2014,10,22,21,27,9.10
2014,10,22,21,28,9.20
2014,10,22,21,29,9.20
2014,10,22,21,30,9.20
2014,10,22,21,31,9.20
2014,10,22,21,32,9.10
2014,10,22,21,33,9.20
2014,10,22,21,34,9.20
2014,10,22,21,35,9.10
2014,10,22,21,36,9.20
2014,10,22,21,37,9.20
2014,10,22,21,38,9.20
2014,10,22,21,39,9.20
2014,10,22,21,40,9.20
2014,10,22,21,41,9.20
2014,10,22,21,42,9.20
2014,10,22,21,43,9.20
2014,10,22,21,44,9.10
2014,10,22,21,45,9.10
2014,10,22,21,46,9.10
2014,10,22,21,47,9.10
2014,10,22,21,48,9.10
2014,10,22,21,49,9.10
2014,10,22,21,50,9.10
2014,10,22,21,51,9.10
2014,10,22,21,52,9.10
2014,10,22,21,53,9.10
2014,10,22,21,54,9.10
2014,10,22,21,55,9.10
2014,10,22,21,56,9.10
2014,10,22,21,57,9.10
2014,10,22,21,58,9.10
2014,10,22,21,59,9.10
2014,10,22,22,00,9.10
2014,10,22,22,01,9.10
2014,10,22,22,02,9.10
2014,10,22,22,03,9.10
2014,10,22,22,04,9.10
2014,10,22,22,05,9.10
2014,10,22,22,06,9.10
2014,10,22,22,07,9.10
2014,10,22,22,08,9.10
2014,10,22,22,09,9.10
2014,10,22,22,10,9.10
2014,10,22,22,11,9.10
2014,10,22,22,12,9.10
2014,10,22,22,13,9.10
2014,10,22,22,14,9.10
2014,10,22,22,15,9.10
2014,10,22,22,16,9.10
2014,10,22,22,17,9.10
2014,10,22,22,18,9.10
2014,10,22,22,19,9.10
2014,10,22,22,20,9.10
2014,10,22,22,21,9.10
2014,10,22,22,22,9.10
2014,10,22,22,23,9.10
2014,10,22,22,24,9.10
2014,10,22,22,25,9.10
2014,10,22,22,26,9.10
2014,10,22,22,27,9.10
2014,10,22,22,28,9.10
2014,10,22,22,29,9.10
2014,10,22,22,30,9.10
2014,10,22,22,31,9.10
2014,10,22,22,32,9.10
2014,10,22,22,33,9.10
2014,10,22,22,34,9.10
2014,10,22,22,35,9.10
2014,10,22,22,36,9.10
2014,10,22,22,37,9.10
2014,10,22,22,38,9.10
2014,10,22,22,39,9.10
2014,10,22,22,40,9.10
2014,10,22,22,41,9.10
2014,10,22,22,42,9.10
2014,10,22,22,43,9.10
2014,10,22,22,44,9.10
2014,10,22,22,45,9.10
2014,10,22,22,46,9.10
2014,10,22,22,47,9.10
2014,10,22,22,48,9.10
2014,10,22,22,49,9.10
2014,10,22,22,50,9.10
2014,10,22,22,51,9.10
2014,10,22,22,52,9.10
2014,10,22,22,53,9.10
2014,10,22,22,54,9.10
2014,10,22,22,55,9.10
2014,10,22,22,56,9.10
2014,10,22,22,57,9.10
2014,10,22,22,58,9.10
2014,10,22,22,59,9.10
2014,10,22,23,00,9.10
2014,10,22,23,01,9.10
2014,10,22,23,02,9.10
2014,10,22,23,03,9.10
2014,10,22,23,04,9.10
2014,10,22,23,05,9.10
2014,10,22,23,06,9.10
2014,10,22,23,07,9.10
2014,10,22,23,08,9.10
2014,10,22,23,09,9.10
2014,10,22,23,10,9.10
2014,10,22,23,11,9.00
2014,10,22,23,12,9.00
2014,10,22,23,13,9.00
2014,10,22,23,14,9.00
2014,10,22,23,15,9.00
2014,10,22,23,16,9.00
2014,10,22,23,17,9.00
2014,10,22,23,18,9.00
2014,10,22,23,19,9.00
2014,10,22,23,20,9.00
2014,10,22,23,21,9.00
2014,10,22,23,22,9.00
2014,10,22,23,23,9.00
2014,10,22,23,24,8.90
2014,10,22,23,25,8.90
2014,10,22,23,26,8.90
2014,10,22,23,27,8.90
2014,10,22,23,28,8.90
2014,10,22,23,29,8.90
2014,10,22,23,30,8.90
2014,10,22,23,31,8.90
2014,10,22,23,32,8.90
2014,10,22,23,33,8.90
2014,10,22,23,34,8.90
2014,10,22,23,35,8.90
2014,10,22,23,36,8.90
2014,10,22,23,37,8.90
2014,10,22,23,38,8.90
2014,10,22,23,39,8.90
2014,10,22,23,40,8.90
2014,10,22,23,41,8.90
2014,10,22,23,42,8.90
2014,10,22,23,43,8.90
2014,10,22,23,44,8.90
2014,10,22,23,45,8.90
2014,10,22,23,46,8.90
2014,10,22,23,47,8.90
2014,10,22,23,48,8.90
2014,10,22,23,49,8.90
2014,10,22,23,50,8.90
2014,10,22,23,51,8.90
2014,10,22,23,52,8.90
2014,10,22,23,53,8.80
2014,10,22,23,54,8.80
2014,10,22,23,55,8.80
2014,10,22,23,56,8.80
2014,10,22,23,57,8.80
2014,10,22,23,58,8.80
2014,10,22,23,59,8.80
